Overview Statistics Trail Chart Weather Telemetry Raw packets
 

This is the latest recevied weather packets stored in our database for station/object KF7SOJ. If no packets are shown the sender has not sent any weather packets the latest 10 day(s).

<< 106 107 108 109 110 111 112 >>
Time Temp. Humidity Pressure Rain* Wind** Luminosity Snow
1787814111 23.33° C 38% 934.7 hPa 0 mm - 0 W/m² -
1787813807 23.89° C 37% 934.7 hPa 0 mm - 0 W/m² -
1787813502 23.33° C 37% 934.7 hPa 0 mm - 0 W/m² -
1787813198 23.33° C 38% 934.6 hPa 0 mm - 0 W/m² -
1787812893 23.89° C 37% 934.8 hPa 0 mm - 0 W/m² -
1787812589 23.89° C 37% 934.6 hPa 0 mm - 0 W/m² -
1787812284 23.33° C 38% 934.9 hPa 0 mm - 0 W/m² -
1787811979 23.33° C 37% 934.8 hPa 0 mm - 0 W/m² -
1787811678 23.89° C 36% 934.7 hPa 0 mm - 0 W/m² -
1787811374 23.33° C 38% 934.7 hPa 0 mm - 0 W/m² -
1787811073 23.89° C 37% 934.6 hPa 0 mm - 0 W/m² -
1787810769 23.89° C 37% 934.8 hPa 0 mm - 0 W/m² -
1787810464 23.89° C 37% 934.6 hPa 0 mm - 0 W/m² -
1787810163 24.44° C 36% 934.3 hPa 0 mm - 0 W/m² -
1787809859 25° C 35% 934.4 hPa 0 mm - 0 W/m² -
1787809558 25° C 34% 934.4 hPa 0 mm - 0 W/m² -
1787809254 24.44° C 35% 934.8 hPa 0 mm - 0 W/m² -
1787808951 25° C 36% 934.6 hPa 0 mm - 0 W/m² -
1787808646 25.56° C 35% 934.4 hPa 0 mm - 0 W/m² -
1787808345 25.56° C 34% 934.3 hPa 0 mm - 0 W/m² -
1787808044 25.56° C 35% 934.4 hPa 0 mm - 0 W/m² -
1787807744 25.56° C 35% 934.7 hPa 0 mm - 0 W/m² -
1787807439 25.56° C 35% 934.7 hPa 0 mm - 0 W/m² -
1787807136 26.11° C 34% 934.7 hPa 0 mm - 0 W/m² -
1787806835 26.67° C 33% 934.7 hPa 0 mm - 0 W/m² -

* Rain latest hour (hover to see other rain measurements)
** Current wind speed in m/s (hover to see current wind gust speed)